KDAY Airport Diagram

We have created a template for each of the higher traffic airports in the vZID airspace. They include KCMH, KCRW, KCVG, KDAY, KIND, KLEX and KSDF. You wil find usefull information including the airport diagram, weather, and specific airport procedures.

KDAY Weather

[Source: ADDS]
METAR
KDAY 171256Z 27008KT 9SM FEW200 00/M02 A3008 RMK AO2 SLP195 T00001022 =
KDAY 171138Z 1712/1812 25005KT P6SM SKC FM171600 30011KT P6SM SCT045 FM180000 31008KT P6SM SKC FM180800 35005KT P6SM SKC
TAF
KDAY 171138Z 1712/1812 25005KT P6SM SKC FM171600 30011KT P6SM SCT045 FM180000 31008KT P6SM SKC FM180800 35005KT P6SM SKC =

KDAY Operations

Approach/Departure operations for KDAY were consolidated into the Columbus TRACON quite some time back. We have recently made that change here at ZID. When arriving/departing the Dayton Airport and airports in the surrounding area, contact with the Columbus APP/DEP controller, if online, should be expected.

Calm Wind Configuration is runways 24L/R. This configuration is used up to and including 10kts.

Runway 24L typically departs south and east, except larger aircraft requiring a longer runway.

Runway 24R typically departs north and west.

 

JSN Epic template designed by JoomlaShine.com